Weather History for Artesia, NM

Change the Weather History Date:

Thursday, March 21, 2013

  Actual Average Record
Temperature  
Mean Temperature 60 °F -  
Max Temperature 80 °F 69 °F 85 °F (1975)
Min Temperature 41 °F 34 °F 21 °F (1976)
Degree Days  
Heating Degree Days 4    
Growing Degree Days 10 (Base 50)    
Moisture  
Dew Point 25 °F    
Average Humidity 32    
Maximum Humidity 70    
Minimum Humidity 8    
Precipitation  
Precipitation 0.00 in - - ()
Sea Level Pressure  
Sea Level Pressure 29.70 in    
Wind  
Wind Speed 12 mph (WSW)    
Max Wind Speed 32 mph    
Max Gust Speed 38 mph    
Visibility 10 miles    
Events      
Averages and records for this station are not official NWS values.
T = Trace of Precipitation, MM = Missing Value Source: NWS Daily Summary

Daily Weather History Graph

Daily Weather History Graph

Search for Another Location

Airport:

Trip Planner

Search our weather history database for the weather conditions in past years. The results will help you decide how hot, cold, wet, or windy it might be!

Date:

Astronomy

Mar. 21, 2013 Rise Set
Actual Time 6:59 AM MDT 7:10 PM MDT
Civil Twilight 6:35 AM MDT 7:35 PM MDT
Nautical Twilight 6:06 AM MDT 8:03 PM MDT
Astronomical Twilight 5:37 AM MDT 8:32 PM MDT
Moon 1:57 PM MDT (3/21) 3:07 AM MDT (3/21)
Length of Visible Light 12h 59m
Length of Day
12h 10m
Waxing Gibbous, 69% of the Moon is Illuminated
Mar 21
Waxing Gibbous
Mar 27
Full
Apr 2
Last Quarter
Apr 10
New
Apr 18
First Quarter

Hourly Weather History & Observations

Time (MDT) Temp. Windchill Dew Point Humidity Pressure Visibility Wind Dir Wind Speed Gust Speed Precip Events Conditions
12:15 AM 50.0 °F - 32.0 °F 50% 29.88 in 10.0 mi South 11.5 mph - N/A   Clear
12:35 AM 50.0 °F - 33.8 °F 54% 29.87 in 10.0 mi South 11.5 mph - N/A   Clear
12:55 AM 50.0 °F - 33.8 °F 54% 29.86 in 10.0 mi SSE 10.4 mph - N/A   Clear
1:15 AM 48.2 °F - 32.0 °F 54% 29.84 in 10.0 mi South 10.4 mph - N/A   Clear
1:35 AM 48.2 °F - 32.0 °F 54% 29.83 in 10.0 mi South 10.4 mph - N/A   Clear
1:55 AM 46.4 °F 40.7 °F 32.0 °F 57% 29.82 in 10.0 mi South 12.7 mph - N/A   Clear
2:15 AM 50.0 °F - 35.6 °F 58% 29.81 in 10.0 mi South 16.1 mph - N/A   Clear
2:35 AM 51.8 °F - 35.6 °F 54% 29.80 in 10.0 mi South 13.8 mph - N/A   Clear
2:55 AM 51.8 °F - 35.6 °F 54% 29.80 in 10.0 mi SSE 8.1 mph - N/A   Clear
3:15 AM 48.2 °F - 33.8 °F 58% 29.79 in 10.0 mi ESE 8.1 mph - N/A   Clear
3:35 AM 48.2 °F - 33.8 °F 58% 29.78 in 10.0 mi South 10.4 mph 16.1 mph N/A   Clear
3:55 AM 50.0 °F - 35.6 °F 58% 29.77 in 10.0 mi East 3.5 mph - N/A   Clear
4:15 AM 50.0 °F - 35.6 °F 58% 29.76 in 10.0 mi SE 4.6 mph - N/A   Clear
4:35 AM 48.2 °F - 33.8 °F 58% 29.75 in 10.0 mi South 9.2 mph - N/A   Clear
4:55 AM 46.4 °F 42.9 °F 33.8 °F 62% 29.74 in 10.0 mi South 6.9 mph - N/A   Clear
5:15 AM 46.4 °F 44.3 °F 32.0 °F 57% 29.75 in 10.0 mi East 4.6 mph - N/A   Clear
5:35 AM 44.6 °F 43.1 °F 32.0 °F 61% 29.75 in 10.0 mi SSE 3.5 mph - N/A   Clear
5:55 AM 44.6 °F 39.7 °F 32.0 °F 61% 29.74 in 10.0 mi South 9.2 mph - N/A   Clear
6:15 AM 44.6 °F 39.7 °F 32.0 °F 61% 29.73 in 10.0 mi SSW 9.2 mph - N/A   Clear
6:35 AM 44.6 °F 42.2 °F 32.0 °F 61% 29.73 in 10.0 mi ENE 4.6 mph - N/A   Clear
6:55 AM 44.6 °F - 32.0 °F 61% 29.73 in 10.0 mi Calm Calm - N/A   Clear
7:15 AM 41.0 °F 39.0 °F 32.0 °F 70% 29.74 in 10.0 mi ENE 3.5 mph - N/A   Clear
7:35 AM 41.0 °F - 32.0 °F 70% 29.73 in 10.0 mi Calm Calm - N/A   Clear
7:55 AM 42.8 °F - 32.0 °F 66% 29.74 in 10.0 mi Calm Calm - N/A   Clear
8:15 AM 44.6 °F 40.2 °F 32.0 °F 61% 29.75 in 10.0 mi North 8.1 mph - N/A   Clear
8:35 AM 46.4 °F 43.5 °F 32.0 °F 57% 29.76 in 10.0 mi North 5.8 mph - N/A   Clear
8:55 AM 48.2 °F - 33.8 °F 58% 29.77 in 10.0 mi NNW 6.9 mph - N/A   Clear
9:35 AM 53.6 °F - 33.8 °F 47% 29.75 in 10.0 mi Calm Calm - N/A   Clear
9:55 AM 57.2 °F - 32.0 °F 38% 29.75 in 10.0 mi Calm Calm - N/A   Clear
10:35 AM 62.6 °F - 32.0 °F 32% 29.74 in 10.0 mi Calm Calm - N/A   Clear
10:55 AM 66.2 °F - 32.0 °F 28% 29.73 in 10.0 mi Calm Calm - N/A   Clear
11:15 AM 71.6 °F - 24.8 °F 17% 29.72 in 10.0 mi Calm Calm - N/A   Clear
11:35 AM 73.4 °F - 23.0 °F 15% 29.72 in 10.0 mi South 3.5 mph - N/A   Clear
11:55 AM 73.4 °F - 24.8 °F 16% 29.71 in 10.0 mi North 8.1 mph - N/A   Clear
12:15 PM 77.0 °F - 19.4 °F 12% 29.69 in 10.0 mi WNW 24.2 mph 33.4 mph N/A   Clear
12:35 PM 77.0 °F - 19.4 °F 12% 29.68 in 10.0 mi WNW 26.5 mph 33.4 mph N/A   Clear
12:55 PM 78.8 °F - 17.6 °F 10% 29.68 in 10.0 mi WNW 28.8 mph 38.0 mph N/A   Clear
1:15 PM 80.6 °F - 17.6 °F 10% 29.67 in 10.0 mi West 25.3 mph 36.8 mph N/A   Clear
1:35 PM 80.6 °F - 15.8 °F 9% 29.65 in 10.0 mi WNW 24.2 mph 34.5 mph N/A   Clear
1:55 PM 78.8 °F - 17.6 °F 10% 29.64 in 10.0 mi WNW 27.6 mph 34.5 mph N/A   Clear
2:15 PM 78.8 °F - 17.6 °F 10% 29.64 in 10.0 mi WNW 23.0 mph 34.5 mph N/A   Clear
2:35 PM 80.6 °F - 19.4 °F 10% 29.63 in 10.0 mi West 24.2 mph 34.5 mph N/A   Clear
2:55 PM 80.6 °F - 17.6 °F 10% 29.63 in 10.0 mi WNW 26.5 mph 34.5 mph N/A   Clear
3:15 PM 80.6 °F - 17.6 °F 10% 29.62 in 10.0 mi NW 23.0 mph 32.2 mph N/A   Clear
3:35 PM 80.6 °F - 17.6 °F 10% 29.61 in 10.0 mi West 25.3 mph 32.2 mph N/A   Clear
3:55 PM 80.6 °F - 15.8 °F 9% 29.61 in 10.0 mi WNW 24.2 mph 32.2 mph N/A   Clear
4:15 PM 80.6 °F - 14.0 °F 8% 29.61 in 10.0 mi WNW 23.0 mph 29.9 mph N/A   Clear
4:35 PM 80.6 °F - 15.8 °F 9% 29.60 in 10.0 mi WNW 20.7 mph 32.2 mph N/A   Clear
4:55 PM 80.6 °F - 14.0 °F 8% 29.60 in 10.0 mi WNW 29.9 mph 35.7 mph N/A   Clear
5:15 PM 80.6 °F - 15.8 °F 9% 29.60 in 10.0 mi WNW 32.2 mph 38.0 mph N/A   Clear
5:35 PM 80.6 °F - 14.0 °F 8% 29.61 in 10.0 mi WNW 25.3 mph 36.8 mph N/A   Clear
5:55 PM 80.6 °F - 15.8 °F 9% 29.61 in 10.0 mi WNW 28.8 mph 34.5 mph N/A   Clear
6:15 PM 77.0 °F - 15.8 °F 10% 29.61 in 10.0 mi West 24.2 mph 31.1 mph N/A   Clear
6:35 PM 77.0 °F - 15.8 °F 10% 29.61 in 10.0 mi WNW 19.6 mph 32.2 mph N/A   Clear
6:55 PM 77.0 °F - 15.8 °F 10% 29.62 in 10.0 mi West 17.3 mph 26.5 mph N/A   Clear
7:15 PM 75.2 °F - 15.8 °F 11% 29.63 in 10.0 mi West 15.0 mph - N/A   Clear
7:35 PM 71.6 °F - 15.8 °F 12% 29.64 in 10.0 mi West 11.5 mph - N/A   Clear
7:55 PM 69.8 °F - 15.8 °F 13% 29.65 in 10.0 mi WSW 10.4 mph - N/A   Clear
8:15 PM 68.0 °F - 19.4 °F 16% 29.65 in 10.0 mi WSW 12.7 mph - N/A   Clear
8:35 PM 66.2 °F - 21.2 °F 18% 29.65 in 10.0 mi WSW 12.7 mph - N/A   Clear
8:55 PM 66.2 °F - 21.2 °F 18% 29.66 in 10.0 mi WSW 11.5 mph - N/A   Clear
9:15 PM 64.4 °F - 21.2 °F 19% 29.67 in 10.0 mi WSW 13.8 mph - N/A   Clear
9:35 PM 64.4 °F - 21.2 °F 19% 29.67 in 10.0 mi WSW 12.7 mph - N/A   Clear
9:55 PM 64.4 °F - 21.2 °F 19% 29.67 in 10.0 mi WSW 13.8 mph - N/A   Clear
10:15 PM 64.4 °F - 21.2 °F 19% 29.68 in 10.0 mi WSW 17.3 mph - N/A   Clear
10:35 PM 64.4 °F - 23.0 °F 21% 29.68 in 10.0 mi WSW 15.0 mph - N/A   Clear
10:55 PM 64.4 °F - 23.0 °F 21% 29.68 in 10.0 mi West 17.3 mph 21.9 mph N/A   Clear
11:15 PM 62.6 °F - 23.0 °F 22% 29.68 in 10.0 mi West 16.1 mph - N/A   Clear
11:35 PM 62.6 °F - 23.0 °F 22% 29.68 in 10.0 mi West 17.3 mph - N/A   Clear
11:55 PM 62.6 °F - 23.0 °F 22% 29.68 in 10.0 mi West 16.1 mph - N/A   Clear